Flag for U.S.A. Weather past 2 weeks in Stockton, California, U.S.A.

Now
59 °F

Clear.


Feels Like: 59 °F
Forecast: 55 / 89 °F
Wind: No wind

Location: Stockton Metropolitan Airport

Current Time: May 29, 2015 at 1:34:24 AM

Latest Report: May 29, 2015 at 12:55 AM


Visibility: 10 mi

Pressure: 29.93 "Hg

Humidity: 69%

Dew point: 49 °F

Location of StocktonLocation

Historic Weather in Stockton — Graph

°F

Stockton temperature yesterday

Maximum temperature yesterday: 83 °F (at 3:55 PM)
Minimum temperature yesterday: 54 °F (at 2:55 AM)
Average temperature yesterday: 67 °F

Past Weeks' High & Low Weather Summary

 TemperatureHumidityPressure
High83 °F (May 24, 2:55 PM)93% (May 21, 4:55 AM)30.08 "Hg (May 21, 4:55 AM)
Low48 °F (May 14, 4:55 AM)31% (May 19, 4:55 PM)29.76 "Hg (May 14, 1:55 PM)
Average63 °F63%29.94 "Hg
* Reported May 13 11:55 PM — May 28 11:55 PM, Stockton, Weather by CustomWeather, © 2015

Note: Actual official high and low records may vary slightly from our data, if they occured in-between our weather recording intervals... More about our weather records

Advertising

Stockton weather history for previous 24 hours

 ConditionsComfort  
Time TempWeatherWind HumidityBarometerVisibility
11:55 PM
Thu, May 28
60 °FClear.6 mph69%29.93 "Hg10 mi
10:55 PM63 °FClear.8 mph63%29.93 "Hg10 mi
9:55 PM66 °FClear.14 mph54%29.92 "Hg10 mi
8:55 PM71 °FSunny.14 mph45%29.91 "Hg10 mi
7:55 PM75 °FSunny.12 mph54%29.89 "Hg10 mi
6:55 PM81 °FSunny.8 mph42%29.88 "Hg10 mi
5:55 PM83 °FSunny.10 mph40%29.88 "Hg10 mi
4:55 PM83 °FSunny.9 mph38%29.90 "Hg10 mi
3:55 PM83 °FSunny.8 mph37%29.92 "Hg10 mi
2:55 PM78 °FSunny.7 mph46%29.93 "Hg10 mi
1:55 PM77 °FSunny.8 mph45%29.95 "Hg10 mi
12:55 PM76 °FSunny.9 mph48%29.97 "Hg10 mi
11:55 AM73 °FSunny.6 mph51%29.98 "Hg10 mi
10:55 AM71 °FSunny.7 mph57%29.99 "Hg10 mi
9:55 AM67 °FSunny.5 mph59%30.00 "Hg10 mi
8:55 AM63 °FSunny.5 mph68%30.00 "Hg10 mi
7:55 AM60 °FSunny.5 mph72%29.99 "Hg10 mi
6:55 AM56 °FSunny.5 mph84%29.98 "Hg10 mi
5:55 AM54 °FClear.8 mph86%29.97 "Hg10 mi
4:55 AM54 °FClear.6 mph86%29.96 "Hg10 mi
3:55 AM54 °FClear.5 mph86%29.95 "Hg10 mi
2:55 AM54 °FClear.6 mph83%29.95 "Hg10 mi
1:55 AM56 °FClear.6 mph81%29.95 "Hg10 mi
Weather by CustomWeather, © 2015

See weather overviewHow to use our weather pages